Location: Unspecified
(51.0950°N, 12.9690°E)
Time: 10:12:34
(UTC+00:00)

STARLINK-3856 - Visible Passes

Search period start: 06 October 2024 00:00
Search period end: 16 October 2024 00:00
Orbit: 539 x 540 km, 53.2° (Epoch: 06 October)

Date Brightness Start Highest point End Pass type
(mag) Time Alt. Az. Time Alt. Az. Time Alt. Az.
06 Oct ? 18:19:19 10° W 18:23:24 72° NNW 18:24:57 36° ENE visible
06 Oct ? 19:58:54 10° WNW 20:00:24 21° WNW 20:00:24 21° WNW visible
07 Oct ? 18:10:41 10° W 18:14:45 68° N 18:16:33 32° ENE visible
07 Oct ? 19:50:15 10° WNW 19:51:59 24° WNW 19:51:59 24° WNW visible
08 Oct ? 18:02:04 10° W 18:06:09 66° N 18:08:09 28° ENE visible
08 Oct ? 19:41:37 10° WNW 19:43:35 27° WNW 19:43:35 27° WNW visible
09 Oct ? 17:53:30 10° W 17:57:34 64° N 17:59:45 26° ENE visible
09 Oct ? 19:33:01 10° WNW 19:35:12 30° WNW 19:35:12 30° WNW visible
10 Oct ? 17:44:57 10° W 17:49:01 63° N 17:51:24 23° ENE visible
10 Oct ? 19:24:26 10° WNW 19:26:51 34° WNW 19:26:51 34° WNW visible
11 Oct ? 17:36:25 10° W 17:40:29 63° N 17:43:05 21° E visible
11 Oct ? 19:15:53 10° WNW 19:18:31 38° W 19:18:31 38° W visible
12 Oct ? 17:27:55 10° WNW 17:32:00 65° N 17:34:48 19° E visible
12 Oct ? 19:07:21 10° WNW 19:10:15 43° W 19:10:15 43° W visible
13 Oct ? 17:19:27 10° WNW 17:23:32 67° N 17:26:35 17° E visible
13 Oct ? 18:58:53 10° WNW 19:02:02 46° WSW 19:02:02 46° WSW visible
14 Oct ? 17:10:59 10° WNW 17:15:05 71° N 17:18:26 15° E visible
14 Oct ? 18:50:26 10° WNW 18:53:53 46° WSW 18:53:53 46° WSW visible
15 Oct ? 17:02:33 10° WNW 17:06:39 75° NNE 17:10:21 12° E visible
15 Oct ? 18:42:01 10° WNW 18:45:49 42° SW 18:45:49 42° SW visible
